This is the latest recevied weather packets stored in our database for station/object KC5DP. If no packets are shown the sender has not sent any weather packets the latest 10 day(s).
| Time | Temp. | Humidity | Pressure | Rain* | Wind** | Luminosity | Snow |
|---|---|---|---|---|---|---|---|
| 1777294278 | 22.78° C | 99% | 1013.3 hPa | 0 mm | - | 81 W/m² | - |
| 1777293671 | 22.22° C | 99% | 1013.3 hPa | 0 mm | - | 67 W/m² | - |
| 1777293366 | 22.22° C | 99% | 1013.4 hPa | 0 mm | - | 54 W/m² | - |
| 1777293062 | 21.67° C | 99% | 1013.3 hPa | 0 mm | - | 56 W/m² | - |
| 1777292761 | 21.67° C | 99% | 1013.5 hPa | 0 mm | - | 51 W/m² | - |
| 1777292457 | 21.67° C | 99% | 1013.4 hPa | 0 mm | - | 42 W/m² | - |
| 1777292154 | 21.67° C | 99% | 1013.1 hPa | 0 mm | - | 29 W/m² | - |
| 1777291850 | 21.67° C | 99% | 1012.9 hPa | 0 mm | - | 34 W/m² | - |
| 1777291547 | 21.67° C | 99% | 1012.9 hPa | 0 mm | - | 30 W/m² | - |
| 1777291244 | 21.11° C | 99% | 1012.8 hPa | 0 mm | - | 27 W/m² | - |
| 1777290940 | 21.11° C | 99% | 1012.8 hPa | 0 mm | - | 23 W/m² | - |
| 1777290638 | 21.11° C | 99% | 1012.6 hPa | 0 mm | - | 18 W/m² | - |
| 1777289726 | 21.67° C | 99% | 1012.6 hPa | 0 mm | - | 7 W/m² | - |
| 1777289422 | 21.67° C | 99% | 1012.4 hPa | 0 mm | - | 5 W/m² | - |
| 1777289119 | 21.67° C | 99% | 1012.3 hPa | 0 mm | - | 3 W/m² | - |
| 1777288815 | 21.67° C | 99% | 1012.2 hPa | 0 mm | - | 2 W/m² | - |
| 1777288512 | 21.67° C | 99% | 1012.2 hPa | 0 mm | - | 1 W/m² | - |
| 1777288209 | 21.67° C | 99% | 1012.2 hPa | 0 mm | - | 0 W/m² | - |
| 1777287905 | 21.67° C | 99% | 1012 hPa | 0 mm | - | 0 W/m² | - |
| 1777286389 | 21.67° C | 99% | 1011.7 hPa | 0 mm | - | 0 W/m² | - |
| 1777286086 | 21.67° C | 99% | 1011.8 hPa | 0 mm | - | 0 W/m² | - |
| 1777285784 | 21.11° C | 99% | 1011.7 hPa | 0 mm | - | 0 W/m² | - |
| 1777285481 | 21.67° C | 99% | 1011.6 hPa | 0 mm | - | 0 W/m² | - |
| 1777285177 | 21.67° C | 99% | 1011.5 hPa | 0 mm | - | 0 W/m² | - |
| 1777284875 | 21.11° C | 99% | 1011.6 hPa | 0 mm | - | 0 W/m² | - |
* Rain latest hour (hover to see other rain measurements)
** Current wind speed in m/s (hover to see current wind gust speed)